Location: Gro�bocka
(50.8204°N, 11.9702°E)
Time: 07:28:11
(UTC+00:00)

SJ 16-02 - Pass Details

Date: 29 October 2020
Orbit: 605 x 617 km, 75.0° (Epoch: 01 December)

Event Time Altitude Azimuth Distance (km) Brightness Sun altitude
Rises 18:29:49 0° 342° (NNW) 2,897 5.2 -25.4°
Reaches altitude 10° 18:32:15 10° 352° (N) 1,989 4.1 -25.8°
Enters shadow 18:33:40 18° 4° (N) 1,516 3.4 -26.0°
